Location: Claremont
(35.7250°N, 81.1500°W)
Time: 22:08:39
(UTC-05:00)

ISS - Visible Passes

Search period start: 20 November 2019 00:00
Search period end: 30 November 2019 00:00
Orbit: 412 x 421 km, 51.6° (Epoch: 21 November)

Date Brightness Start Highest point End Pass type
(mag) Time Alt. Az. Time Alt. Az. Time Alt. Az.
20 Nov -3.6 18:37:14 10° SSW 18:40:29 54° SE 18:40:55 49° ESE visible
21 Nov -2.5 17:49:21 10° SSW 17:52:14 28° SE 17:54:52 12° ENE visible
21 Nov -1.3 19:26:04 10° W 19:27:48 21° WNW 19:27:48 21° WNW visible
22 Nov -2.9 18:37:16 10° WSW 18:40:28 44° NW 18:41:39 30° NNE visible
23 Nov -3.7 17:48:43 10° SW 17:52:03 83° NW 17:55:25 10° NE visible
23 Nov -0.7 19:27:37 10° NW 19:28:20 12° NW 19:28:20 12° NW visible
24 Nov -1.5 18:38:13 10° WNW 18:40:38 18° NNW 18:42:01 15° N visible
25 Nov -2.1 17:49:08 10° W 17:52:04 28° NW 17:55:01 10° NNE visible
27 Nov -1.2 17:50:32 10° WNW 17:52:17 13° NNW 17:54:02 10° N visible
